Index of /20260505/WXO-DD/model_caps/3km/12/014
Name Last modified Size Description
Parent Directory -
20260505T12Z_MSC_CAPS_AbsoluteVorticity_IsbL-0250_RLatLon0.03_PT014H.grib2 2026-05-05 18:13 1.4M
20260505T12Z_MSC_CAPS_AbsoluteVorticity_IsbL-0500_RLatLon0.03_PT014H.grib2 2026-05-05 18:13 1.1M
20260505T12Z_MSC_CAPS_AbsoluteVorticity_IsbL-0700_RLatLon0.03_PT014H.grib2 2026-05-05 18:13 1.4M
20260505T12Z_MSC_CAPS_AbsoluteVorticity_IsbL-0850_RLatLon0.03_PT014H.grib2 2026-05-05 18:13 1.3M
20260505T12Z_MSC_CAPS_AbsoluteVorticity_IsbL-1000_RLatLon0.03_PT014H.grib2 2026-05-05 18:13 1.4M
20260505T12Z_MSC_CAPS_AirDensity_AGL-120m_RLatLon0.03_PT014H.grib2 2026-05-05 18:13 1.4M
20260505T12Z_MSC_CAPS_AirDensity_AGL-40m_RLatLon0.03_PT014H.grib2 2026-05-05 18:13 1.4M
20260505T12Z_MSC_CAPS_AirDensity_AGL-80m_RLatLon0.03_PT014H.grib2 2026-05-05 18:13 1.4M
20260505T12Z_MSC_CAPS_AirTemp_AGL-120m_RLatLon0.03_PT014H.grib2 2026-05-05 18:13 1.8M
20260505T12Z_MSC_CAPS_AirTemp_AGL-2m_RLatLon0.03_PT014H.grib2 2026-05-05 18:13 1.7M
20260505T12Z_MSC_CAPS_AirTemp_AGL-40m_RLatLon0.03_PT014H.grib2 2026-05-05 18:13 1.5M
20260505T12Z_MSC_CAPS_AirTemp_AGL-80m_RLatLon0.03_PT014H.grib2 2026-05-05 18:13 1.4M
20260505T12Z_MSC_CAPS_AirTemp_IsbL-0050_RLatLon0.03_PT014H.grib2 2026-05-05 18:13 692K
20260505T12Z_MSC_CAPS_AirTemp_IsbL-0100_RLatLon0.03_PT014H.grib2 2026-05-05 18:13 955K
20260505T12Z_MSC_CAPS_AirTemp_IsbL-0150_RLatLon0.03_PT014H.grib2 2026-05-05 18:13 752K
20260505T12Z_MSC_CAPS_AirTemp_IsbL-0175_RLatLon0.03_PT014H.grib2 2026-05-05 18:13 777K
20260505T12Z_MSC_CAPS_AirTemp_IsbL-0200_RLatLon0.03_PT014H.grib2 2026-05-05 18:13 800K
20260505T12Z_MSC_CAPS_AirTemp_IsbL-0225_RLatLon0.03_PT014H.grib2 2026-05-05 18:13 798K
20260505T12Z_MSC_CAPS_AirTemp_IsbL-0250_RLatLon0.03_PT014H.grib2 2026-05-05 18:13 1.0M
20260505T12Z_MSC_CAPS_AirTemp_IsbL-0275_RLatLon0.03_PT014H.grib2 2026-05-05 18:13 1.0M
20260505T12Z_MSC_CAPS_AirTemp_IsbL-0300_RLatLon0.03_PT014H.grib2 2026-05-05 18:13 859K
20260505T12Z_MSC_CAPS_AirTemp_IsbL-0350_RLatLon0.03_PT014H.grib2 2026-05-05 18:13 759K
20260505T12Z_MSC_CAPS_AirTemp_IsbL-0400_RLatLon0.03_PT014H.grib2 2026-05-05 18:13 766K
20260505T12Z_MSC_CAPS_AirTemp_IsbL-0450_RLatLon0.03_PT014H.grib2 2026-05-05 18:13 777K
20260505T12Z_MSC_CAPS_AirTemp_IsbL-0500_RLatLon0.03_PT014H.grib2 2026-05-05 18:13 794K
20260505T12Z_MSC_CAPS_AirTemp_IsbL-0550_RLatLon0.03_PT014H.grib2 2026-05-05 18:13 807K
20260505T12Z_MSC_CAPS_AirTemp_IsbL-0600_RLatLon0.03_PT014H.grib2 2026-05-05 18:13 825K
20260505T12Z_MSC_CAPS_AirTemp_IsbL-0650_RLatLon0.03_PT014H.grib2 2026-05-05 18:13 854K
20260505T12Z_MSC_CAPS_AirTemp_IsbL-0700_RLatLon0.03_PT014H.grib2 2026-05-05 18:13 1.0M
20260505T12Z_MSC_CAPS_AirTemp_IsbL-0750_RLatLon0.03_PT014H.grib2 2026-05-05 18:13 1.0M
20260505T12Z_MSC_CAPS_AirTemp_IsbL-0800_RLatLon0.03_PT014H.grib2 2026-05-05 18:13 1.0M
20260505T12Z_MSC_CAPS_AirTemp_IsbL-0850_RLatLon0.03_PT014H.grib2 2026-05-05 18:13 1.0M
20260505T12Z_MSC_CAPS_AirTemp_IsbL-0875_RLatLon0.03_PT014H.grib2 2026-05-05 18:13 1.0M
20260505T12Z_MSC_CAPS_AirTemp_IsbL-0900_RLatLon0.03_PT014H.grib2 2026-05-05 18:13 1.0M
20260505T12Z_MSC_CAPS_AirTemp_IsbL-0925_RLatLon0.03_PT014H.grib2 2026-05-05 18:13 1.1M
20260505T12Z_MSC_CAPS_AirTemp_IsbL-0950_RLatLon0.03_PT014H.grib2 2026-05-05 18:13 1.1M
20260505T12Z_MSC_CAPS_AirTemp_IsbL-0970_RLatLon0.03_PT014H.grib2 2026-05-05 18:13 1.1M
20260505T12Z_MSC_CAPS_AirTemp_IsbL-0985_RLatLon0.03_PT014H.grib2 2026-05-05 18:13 1.0M
20260505T12Z_MSC_CAPS_AirTemp_IsbL-1000_RLatLon0.03_PT014H.grib2 2026-05-05 18:13 1.0M
20260505T12Z_MSC_CAPS_AirTemp_IsbL-1015_RLatLon0.03_PT014H.grib2 2026-05-05 18:13 1.1M
20260505T12Z_MSC_CAPS_Albedo_Sfc_RLatLon0.03_PT014H.grib2 2026-05-05 18:13 2.7M
20260505T12Z_MSC_CAPS_CAPE_Sfc_RLatLon0.03_PT014H.grib2 2026-05-05 18:13 231K
20260505T12Z_MSC_CAPS_CloudWater_EAtm_RLatLon0.03_PT014H.grib2 2026-05-05 18:13 1.5M
20260505T12Z_MSC_CAPS_ConvectivePrecip-Accum_Sfc_RLatLon0.03_PT014H.grib2 2026-05-05 18:13 2.8M
20260505T12Z_MSC_CAPS_DewPointDepression_AGL-120m_RLatLon0.03_PT014H.grib2 2026-05-05 18:13 2.1M
20260505T12Z_MSC_CAPS_DewPointDepression_AGL-2m_RLatLon0.03_PT014H.grib2 2026-05-05 18:13 2.2M
20260505T12Z_MSC_CAPS_DewPointDepression_AGL-40m_RLatLon0.03_PT014H.grib2 2026-05-05 18:13 2.2M
20260505T12Z_MSC_CAPS_DewPointDepression_AGL-80m_RLatLon0.03_PT014H.grib2 2026-05-05 18:13 2.1M
20260505T12Z_MSC_CAPS_DewPointDepression_IsbL-0050_RLatLon0.03_PT014H.grib2 2026-05-05 18:13 2.8K
20260505T12Z_MSC_CAPS_DewPointDepression_IsbL-0100_RLatLon0.03_PT014H.grib2 2026-05-05 18:13 53K
20260505T12Z_MSC_CAPS_DewPointDepression_IsbL-0150_RLatLon0.03_PT014H.grib2 2026-05-05 18:13 65K
20260505T12Z_MSC_CAPS_DewPointDepression_IsbL-0175_RLatLon0.03_PT014H.grib2 2026-05-05 18:13 212K
20260505T12Z_MSC_CAPS_DewPointDepression_IsbL-0200_RLatLon0.03_PT014H.grib2 2026-05-05 18:13 395K
20260505T12Z_MSC_CAPS_DewPointDepression_IsbL-0225_RLatLon0.03_PT014H.grib2 2026-05-05 18:13 599K
20260505T12Z_MSC_CAPS_DewPointDepression_IsbL-0250_RLatLon0.03_PT014H.grib2 2026-05-05 18:13 846K
20260505T12Z_MSC_CAPS_DewPointDepression_IsbL-0275_RLatLon0.03_PT014H.grib2 2026-05-05 18:13 1.0M
20260505T12Z_MSC_CAPS_DewPointDepression_IsbL-0300_RLatLon0.03_PT014H.grib2 2026-05-05 18:13 1.0M
20260505T12Z_MSC_CAPS_DewPointDepression_IsbL-0350_RLatLon0.03_PT014H.grib2 2026-05-05 18:13 1.1M
20260505T12Z_MSC_CAPS_DewPointDepression_IsbL-0400_RLatLon0.03_PT014H.grib2 2026-05-05 18:13 1.1M
20260505T12Z_MSC_CAPS_DewPointDepression_IsbL-0450_RLatLon0.03_PT014H.grib2 2026-05-05 18:13 1.2M
20260505T12Z_MSC_CAPS_DewPointDepression_IsbL-0500_RLatLon0.03_PT014H.grib2 2026-05-05 18:13 1.2M
20260505T12Z_MSC_CAPS_DewPointDepression_IsbL-0550_RLatLon0.03_PT014H.grib2 2026-05-05 18:13 1.2M
20260505T12Z_MSC_CAPS_DewPointDepression_IsbL-0600_RLatLon0.03_PT014H.grib2 2026-05-05 18:13 1.2M
20260505T12Z_MSC_CAPS_DewPointDepression_IsbL-0650_RLatLon0.03_PT014H.grib2 2026-05-05 18:13 1.3M
20260505T12Z_MSC_CAPS_DewPointDepression_IsbL-0700_RLatLon0.03_PT014H.grib2 2026-05-05 18:13 1.3M
20260505T12Z_MSC_CAPS_DewPointDepression_IsbL-0750_RLatLon0.03_PT014H.grib2 2026-05-05 18:13 1.3M
20260505T12Z_MSC_CAPS_DewPointDepression_IsbL-0800_RLatLon0.03_PT014H.grib2 2026-05-05 18:13 1.3M
20260505T12Z_MSC_CAPS_DewPointDepression_IsbL-0850_RLatLon0.03_PT014H.grib2 2026-05-05 18:13 1.3M
20260505T12Z_MSC_CAPS_DewPointDepression_IsbL-0875_RLatLon0.03_PT014H.grib2 2026-05-05 18:13 1.3M
20260505T12Z_MSC_CAPS_DewPointDepression_IsbL-0900_RLatLon0.03_PT014H.grib2 2026-05-05 18:13 1.3M
20260505T12Z_MSC_CAPS_DewPointDepression_IsbL-0925_RLatLon0.03_PT014H.grib2 2026-05-05 18:13 1.4M
20260505T12Z_MSC_CAPS_DewPointDepression_IsbL-0950_RLatLon0.03_PT014H.grib2 2026-05-05 18:13 1.4M
20260505T12Z_MSC_CAPS_DewPointDepression_IsbL-0970_RLatLon0.03_PT014H.grib2 2026-05-05 18:13 1.4M
20260505T12Z_MSC_CAPS_DewPointDepression_IsbL-0985_RLatLon0.03_PT014H.grib2 2026-05-05 18:13 1.4M
20260505T12Z_MSC_CAPS_DewPointDepression_IsbL-1000_RLatLon0.03_PT014H.grib2 2026-05-05 18:13 1.4M
20260505T12Z_MSC_CAPS_DewPointDepression_IsbL-1015_RLatLon0.03_PT014H.grib2 2026-05-05 18:13 1.4M
20260505T12Z_MSC_CAPS_DewPoint_AGL-120m_RLatLon0.03_PT014H.grib2 2026-05-05 18:13 3.6M
20260505T12Z_MSC_CAPS_DewPoint_AGL-2m_RLatLon0.03_PT014H.grib2 2026-05-05 18:13 1.8M
20260505T12Z_MSC_CAPS_DewPoint_AGL-40m_RLatLon0.03_PT014H.grib2 2026-05-05 18:13 3.7M
20260505T12Z_MSC_CAPS_DewPoint_AGL-80m_RLatLon0.03_PT014H.grib2 2026-05-05 18:13 3.7M
20260505T12Z_MSC_CAPS_DownwardLongwaveRadiationFlux-Accum_Sfc_RLatLon0.03_PT014H.grib2 2026-05-05 18:13 2.5M
20260505T12Z_MSC_CAPS_DownwardShortwaveRadiationFlux-Accum_NTAtm_RLatLon0.03_PT014H.grib2 2026-05-05 18:13 466K
20260505T12Z_MSC_CAPS_DownwardShortwaveRadiationFlux-Accum_Sfc_RLatLon0.03_PT014H.grib2 2026-05-05 18:13 2.9M
20260505T12Z_MSC_CAPS_FreezingRain-Accum_Sfc_RLatLon0.03_PT014H.grib2 2026-05-05 18:13 544K
20260505T12Z_MSC_CAPS_GeopotentialHeight_IsbL-0050_RLatLon0.03_PT014H.grib2 2026-05-05 18:13 621K
20260505T12Z_MSC_CAPS_GeopotentialHeight_IsbL-0100_RLatLon0.03_PT014H.grib2 2026-05-05 18:13 743K
20260505T12Z_MSC_CAPS_GeopotentialHeight_IsbL-0150_RLatLon0.03_PT014H.grib2 2026-05-05 18:13 602K
20260505T12Z_MSC_CAPS_GeopotentialHeight_IsbL-0175_RLatLon0.03_PT014H.grib2 2026-05-05 18:13 715K
20260505T12Z_MSC_CAPS_GeopotentialHeight_IsbL-0200_RLatLon0.03_PT014H.grib2 2026-05-05 18:13 738K
20260505T12Z_MSC_CAPS_GeopotentialHeight_IsbL-0225_RLatLon0.03_PT014H.grib2 2026-05-05 18:13 759K
20260505T12Z_MSC_CAPS_GeopotentialHeight_IsbL-0250_RLatLon0.03_PT014H.grib2 2026-05-05 18:13 771K
20260505T12Z_MSC_CAPS_GeopotentialHeight_IsbL-0275_RLatLon0.03_PT014H.grib2 2026-05-05 18:13 780K
20260505T12Z_MSC_CAPS_GeopotentialHeight_IsbL-0300_RLatLon0.03_PT014H.grib2 2026-05-05 18:13 785K
20260505T12Z_MSC_CAPS_GeopotentialHeight_IsbL-0350_RLatLon0.03_PT014H.grib2 2026-05-05 18:13 786K
20260505T12Z_MSC_CAPS_GeopotentialHeight_IsbL-0400_RLatLon0.03_PT014H.grib2 2026-05-05 18:13 781K
20260505T12Z_MSC_CAPS_GeopotentialHeight_IsbL-0450_RLatLon0.03_PT014H.grib2 2026-05-05 18:13 772K
20260505T12Z_MSC_CAPS_GeopotentialHeight_IsbL-0500_RLatLon0.03_PT014H.grib2 2026-05-05 18:13 765K
20260505T12Z_MSC_CAPS_GeopotentialHeight_IsbL-0550_RLatLon0.03_PT014H.grib2 2026-05-05 18:13 644K
20260505T12Z_MSC_CAPS_GeopotentialHeight_IsbL-0600_RLatLon0.03_PT014H.grib2 2026-05-05 18:13 637K
20260505T12Z_MSC_CAPS_GeopotentialHeight_IsbL-0650_RLatLon0.03_PT014H.grib2 2026-05-05 18:13 810K
20260505T12Z_MSC_CAPS_GeopotentialHeight_IsbL-0700_RLatLon0.03_PT014H.grib2 2026-05-05 18:13 813K
20260505T12Z_MSC_CAPS_GeopotentialHeight_IsbL-0750_RLatLon0.03_PT014H.grib2 2026-05-05 18:13 818K
20260505T12Z_MSC_CAPS_GeopotentialHeight_IsbL-0800_RLatLon0.03_PT014H.grib2 2026-05-05 18:13 823K
20260505T12Z_MSC_CAPS_GeopotentialHeight_IsbL-0850_RLatLon0.03_PT014H.grib2 2026-05-05 18:13 833K
20260505T12Z_MSC_CAPS_GeopotentialHeight_IsbL-0875_RLatLon0.03_PT014H.grib2 2026-05-05 18:13 827K
20260505T12Z_MSC_CAPS_GeopotentialHeight_IsbL-0900_RLatLon0.03_PT014H.grib2 2026-05-05 18:13 847K
20260505T12Z_MSC_CAPS_GeopotentialHeight_IsbL-0925_RLatLon0.03_PT014H.grib2 2026-05-05 18:13 666K
20260505T12Z_MSC_CAPS_GeopotentialHeight_IsbL-0950_RLatLon0.03_PT014H.grib2 2026-05-05 18:13 674K
20260505T12Z_MSC_CAPS_GeopotentialHeight_IsbL-0970_RLatLon0.03_PT014H.grib2 2026-05-05 18:13 681K
20260505T12Z_MSC_CAPS_GeopotentialHeight_IsbL-0985_RLatLon0.03_PT014H.grib2 2026-05-05 18:13 687K
20260505T12Z_MSC_CAPS_GeopotentialHeight_IsbL-1000_RLatLon0.03_PT014H.grib2 2026-05-05 18:13 693K
20260505T12Z_MSC_CAPS_GeopotentialHeight_IsbL-1015_RLatLon0.03_PT014H.grib2 2026-05-05 18:13 702K
20260505T12Z_MSC_CAPS_GeopotentialHeight_Sfc_RLatLon0.03_PT014H.grib2 2026-05-05 18:13 1.0M
20260505T12Z_MSC_CAPS_IcePellets-Accum_Sfc_RLatLon0.03_PT014H.grib2 2026-05-05 18:13 81K
20260505T12Z_MSC_CAPS_LatentHeatNetFlux_Sfc_RLatLon0.03_PT014H.grib2 2026-05-05 18:13 1.9M
20260505T12Z_MSC_CAPS_LiftedIndex-MU-VT_IsbL-0500_RLatLon0.03_PT014H.grib2 2026-05-05 18:13 3.3M
20260505T12Z_MSC_CAPS_MixedLayerThickness_Sfc_RLatLon0.03_PT014H.nc 2026-05-05 18:13 16M
20260505T12Z_MSC_CAPS_NetLongwaveRadiationFlux-Accum_Sfc_RLatLon0.03_PT014H.grib2 2026-05-05 18:13 2.7M
20260505T12Z_MSC_CAPS_NetShortwaveRadiationFlux-Accum_Sfc_RLatLon0.03_PT014H.grib2 2026-05-05 18:13 2.9M
20260505T12Z_MSC_CAPS_PlanetaryBoundaryLayerHeight_Sfc_RLatLon0.03_PT014H.grib2 2026-05-05 18:13 3.0M
20260505T12Z_MSC_CAPS_Precip-Accum_Sfc_RLatLon0.03_PT014H.grib2 2026-05-05 18:13 4.1M
20260505T12Z_MSC_CAPS_PrecipRate_Sfc_RLatLon0.03_PT014H.grib2 2026-05-05 18:13 333K
20260505T12Z_MSC_CAPS_PrecipType-Instant_Sfc_RLatLon0.03_PT014H.grib2 2026-05-05 18:13 1.8M
20260505T12Z_MSC_CAPS_Pressure_MSL_RLatLon0.03_PT014H.grib2 2026-05-05 18:13 927K
20260505T12Z_MSC_CAPS_Pressure_Sfc_RLatLon0.03_PT014H.grib2 2026-05-05 18:13 1.2M
20260505T12Z_MSC_CAPS_RadiativeTemp_Sfc_RLatLon0.03_PT014H.grib2 2026-05-05 18:13 2.1M
20260505T12Z_MSC_CAPS_Rain-Accum_Sfc_RLatLon0.03_PT014H.grib2 2026-05-05 18:13 2.1M
20260505T12Z_MSC_CAPS_RelativeHumidity_AGL-120m_RLatLon0.03_PT014H.grib2 2026-05-05 18:13 2.8M
20260505T12Z_MSC_CAPS_RelativeHumidity_AGL-2m_RLatLon0.03_PT014H.grib2 2026-05-05 18:13 3.0M
20260505T12Z_MSC_CAPS_RelativeHumidity_AGL-40m_RLatLon0.03_PT014H.grib2 2026-05-05 18:13 2.9M
20260505T12Z_MSC_CAPS_RelativeHumidity_AGL-80m_RLatLon0.03_PT014H.grib2 2026-05-05 18:13 2.8M
20260505T12Z_MSC_CAPS_RelativeHumidity_IsbL-0050_RLatLon0.03_PT014H.grib2 2026-05-05 18:13 963K
20260505T12Z_MSC_CAPS_RelativeHumidity_IsbL-0100_RLatLon0.03_PT014H.grib2 2026-05-05 18:13 855K
20260505T12Z_MSC_CAPS_RelativeHumidity_IsbL-0150_RLatLon0.03_PT014H.grib2 2026-05-05 18:13 531K
20260505T12Z_MSC_CAPS_RelativeHumidity_IsbL-0175_RLatLon0.03_PT014H.grib2 2026-05-05 18:13 731K
20260505T12Z_MSC_CAPS_RelativeHumidity_IsbL-0200_RLatLon0.03_PT014H.grib2 2026-05-05 18:13 653K
20260505T12Z_MSC_CAPS_RelativeHumidity_IsbL-0225_RLatLon0.03_PT014H.grib2 2026-05-05 18:13 878K
20260505T12Z_MSC_CAPS_RelativeHumidity_IsbL-0250_RLatLon0.03_PT014H.grib2 2026-05-05 18:13 1.1M
20260505T12Z_MSC_CAPS_RelativeHumidity_IsbL-0275_RLatLon0.03_PT014H.grib2 2026-05-05 18:13 1.4M
20260505T12Z_MSC_CAPS_RelativeHumidity_IsbL-0300_RLatLon0.03_PT014H.grib2 2026-05-05 18:13 1.5M
20260505T12Z_MSC_CAPS_RelativeHumidity_IsbL-0350_RLatLon0.03_PT014H.grib2 2026-05-05 18:13 1.7M
20260505T12Z_MSC_CAPS_RelativeHumidity_IsbL-0400_RLatLon0.03_PT014H.grib2 2026-05-05 18:13 1.9M
20260505T12Z_MSC_CAPS_RelativeHumidity_IsbL-0450_RLatLon0.03_PT014H.grib2 2026-05-05 18:13 2.0M
20260505T12Z_MSC_CAPS_RelativeHumidity_IsbL-0500_RLatLon0.03_PT014H.grib2 2026-05-05 18:13 2.0M
20260505T12Z_MSC_CAPS_RelativeHumidity_IsbL-0550_RLatLon0.03_PT014H.grib2 2026-05-05 18:13 2.1M
20260505T12Z_MSC_CAPS_RelativeHumidity_IsbL-0600_RLatLon0.03_PT014H.grib2 2026-05-05 18:13 2.1M
20260505T12Z_MSC_CAPS_RelativeHumidity_IsbL-0650_RLatLon0.03_PT014H.grib2 2026-05-05 18:13 2.2M
20260505T12Z_MSC_CAPS_RelativeHumidity_IsbL-0700_RLatLon0.03_PT014H.grib2 2026-05-05 18:13 2.3M
20260505T12Z_MSC_CAPS_RelativeHumidity_IsbL-0750_RLatLon0.03_PT014H.grib2 2026-05-05 18:13 2.4M
20260505T12Z_MSC_CAPS_RelativeHumidity_IsbL-0800_RLatLon0.03_PT014H.grib2 2026-05-05 18:13 2.5M
20260505T12Z_MSC_CAPS_RelativeHumidity_IsbL-0850_RLatLon0.03_PT014H.grib2 2026-05-05 18:13 2.6M
20260505T12Z_MSC_CAPS_RelativeHumidity_IsbL-0875_RLatLon0.03_PT014H.grib2 2026-05-05 18:13 2.6M
20260505T12Z_MSC_CAPS_RelativeHumidity_IsbL-0900_RLatLon0.03_PT014H.grib2 2026-05-05 18:13 2.6M
20260505T12Z_MSC_CAPS_RelativeHumidity_IsbL-0925_RLatLon0.03_PT014H.grib2 2026-05-05 18:13 2.7M
20260505T12Z_MSC_CAPS_RelativeHumidity_IsbL-0950_RLatLon0.03_PT014H.grib2 2026-05-05 18:13 2.8M
20260505T12Z_MSC_CAPS_RelativeHumidity_IsbL-0970_RLatLon0.03_PT014H.grib2 2026-05-05 18:13 2.8M
20260505T12Z_MSC_CAPS_RelativeHumidity_IsbL-0985_RLatLon0.03_PT014H.grib2 2026-05-05 18:13 2.9M
20260505T12Z_MSC_CAPS_RelativeHumidity_IsbL-1000_RLatLon0.03_PT014H.grib2 2026-05-05 18:13 2.9M
20260505T12Z_MSC_CAPS_RelativeHumidity_IsbL-1015_RLatLon0.03_PT014H.grib2 2026-05-05 18:13 2.9M
20260505T12Z_MSC_CAPS_Runoff-Accum_Sfc_RLatLon0.03_PT014H.grib2 2026-05-05 18:13 307K
20260505T12Z_MSC_CAPS_SeaIceAreaFraction_Sfc_RLatLon0.03_PT014H.nc 2026-05-05 18:13 15M
20260505T12Z_MSC_CAPS_SeaIceCompressiveStrength_Sfc_RLatLon0.03_PT014H.nc 2026-05-05 18:13 15M
20260505T12Z_MSC_CAPS_SeaIceDivergence_Sfc_RLatLon0.03_PT014H.nc 2026-05-05 18:13 15M
20260505T12Z_MSC_CAPS_SeaIceInternalPressure_Sfc_RLatLon0.03_PT014H.nc 2026-05-05 18:13 15M
20260505T12Z_MSC_CAPS_SeaIceShear_Sfc_RLatLon0.03_PT014H.nc 2026-05-05 18:13 14M
20260505T12Z_MSC_CAPS_SeaIceSnowTemp_Sfc_RLatLon0.03_PT014H.nc 2026-05-05 18:13 14M
20260505T12Z_MSC_CAPS_SeaIceSnowVolume_Sfc_RLatLon0.03_PT014H.nc 2026-05-05 18:13 15M
20260505T12Z_MSC_CAPS_SeaIceVelocityX_Sfc_RLatLon0.03_PT014H.nc 2026-05-05 18:13 15M
20260505T12Z_MSC_CAPS_SeaIceVelocityY_Sfc_RLatLon0.03_PT014H.nc 2026-05-05 18:13 15M
20260505T12Z_MSC_CAPS_SeaIceVolume_Sfc_RLatLon0.03_PT014H.nc 2026-05-05 18:13 15M
20260505T12Z_MSC_CAPS_SeaSurfaceHeight_Sfc_RLatLon0.03_PT014H.nc 2026-05-05 18:13 16M
20260505T12Z_MSC_CAPS_SeaWaterSalinity_DBS-0.5m_RLatLon0.03_PT014H.nc 2026-05-05 18:13 16M
20260505T12Z_MSC_CAPS_SeaWaterSalinity_DBS-all_RLatLon0.03_PT014H.nc 2026-05-05 18:13 107M
20260505T12Z_MSC_CAPS_SeaWaterTemp_DBS-0.5m_RLatLon0.03_PT014H.nc 2026-05-05 18:13 15M
20260505T12Z_MSC_CAPS_SeaWaterTemp_DBS-all_RLatLon0.03_PT014H.nc 2026-05-05 18:13 88M
20260505T12Z_MSC_CAPS_SeaWaterVelocityX_DBS-0.5m_RLatLon0.03_PT014H.nc 2026-05-05 18:13 17M
20260505T12Z_MSC_CAPS_SeaWaterVelocityX_DBS-all_RLatLon0.03_PT014H.nc 2026-05-05 18:13 208M
20260505T12Z_MSC_CAPS_SeaWaterVelocityY_DBS-0.5m_RLatLon0.03_PT014H.nc 2026-05-05 18:13 17M
20260505T12Z_MSC_CAPS_SeaWaterVelocityY_DBS-all_RLatLon0.03_PT014H.nc 2026-05-05 18:13 213M
20260505T12Z_MSC_CAPS_SensibleHeatNetFlux_Sfc_RLatLon0.03_PT014H.grib2 2026-05-05 18:13 1.8M
20260505T12Z_MSC_CAPS_ShowalterIndex_IsbL-0500_RLatLon0.03_PT014H.grib2 2026-05-05 18:13 3.8M
20260505T12Z_MSC_CAPS_Snow-Accum_Sfc_RLatLon0.03_PT014H.grib2 2026-05-05 18:13 3.1M
20260505T12Z_MSC_CAPS_SnowDensity_Sfc_RLatLon0.03_PT014H.grib2 2026-05-05 18:13 1.2M
20260505T12Z_MSC_CAPS_SnowDepthWaterEquivalent_Sfc_RLatLon0.03_PT014H.grib2 2026-05-05 18:13 654K
20260505T12Z_MSC_CAPS_SnowDepth_Sfc_RLatLon0.03_PT014H.grib2 2026-05-05 18:13 1.1M
20260505T12Z_MSC_CAPS_SoilTemp_DBS-0to10cm_RLatLon0.03_PT014H.grib2 2026-05-05 18:13 1.5M
20260505T12Z_MSC_CAPS_SoilTemp_Sfc_RLatLon0.03_PT014H.grib2 2026-05-05 18:13 1.8M
20260505T12Z_MSC_CAPS_SoilVolumetricIceContent_Sfc_RLatLon0.03_PT014H.grib2 2026-05-05 18:13 1.3M
20260505T12Z_MSC_CAPS_SoilVolumetricWaterContent_DBS-0to10cm_RLatLon0.03_PT014H.grib2 2026-05-05 18:13 1.3M
20260505T12Z_MSC_CAPS_SoilVolumetricWaterContent_DBS-0to1cm_RLatLon0.03_PT014H.grib2 2026-05-05 18:13 1.7M
20260505T12Z_MSC_CAPS_SpecificHumidity_AGL-120m_RLatLon0.03_PT014H.grib2 2026-05-05 18:13 1.8M
20260505T12Z_MSC_CAPS_SpecificHumidity_AGL-2m_RLatLon0.03_PT014H.grib2 2026-05-05 18:13 1.7M
20260505T12Z_MSC_CAPS_SpecificHumidity_AGL-40m_RLatLon0.03_PT014H.grib2 2026-05-05 18:13 1.9M
20260505T12Z_MSC_CAPS_SpecificHumidity_AGL-80m_RLatLon0.03_PT014H.grib2 2026-05-05 18:13 1.8M
20260505T12Z_MSC_CAPS_SpecificHumidity_IsbL-0050_RLatLon0.03_PT014H.grib2 2026-05-05 18:13 895K
20260505T12Z_MSC_CAPS_SpecificHumidity_IsbL-0100_RLatLon0.03_PT014H.grib2 2026-05-05 18:13 1.0M
20260505T12Z_MSC_CAPS_SpecificHumidity_IsbL-0150_RLatLon0.03_PT014H.grib2 2026-05-05 18:13 1.0M
20260505T12Z_MSC_CAPS_SpecificHumidity_IsbL-0175_RLatLon0.03_PT014H.grib2 2026-05-05 18:13 1.0M
20260505T12Z_MSC_CAPS_SpecificHumidity_IsbL-0200_RLatLon0.03_PT014H.grib2 2026-05-05 18:13 877K
20260505T12Z_MSC_CAPS_SpecificHumidity_IsbL-0225_RLatLon0.03_PT014H.grib2 2026-05-05 18:13 1.1M
20260505T12Z_MSC_CAPS_SpecificHumidity_IsbL-0250_RLatLon0.03_PT014H.grib2 2026-05-05 18:13 1.1M
20260505T12Z_MSC_CAPS_SpecificHumidity_IsbL-0275_RLatLon0.03_PT014H.grib2 2026-05-05 18:13 1.1M
20260505T12Z_MSC_CAPS_SpecificHumidity_IsbL-0300_RLatLon0.03_PT014H.grib2 2026-05-05 18:13 1.0M
20260505T12Z_MSC_CAPS_SpecificHumidity_IsbL-0350_RLatLon0.03_PT014H.grib2 2026-05-05 18:13 1.2M
20260505T12Z_MSC_CAPS_SpecificHumidity_IsbL-0400_RLatLon0.03_PT014H.grib2 2026-05-05 18:13 1.2M
20260505T12Z_MSC_CAPS_SpecificHumidity_IsbL-0450_RLatLon0.03_PT014H.grib2 2026-05-05 18:13 1.1M
20260505T12Z_MSC_CAPS_SpecificHumidity_IsbL-0500_RLatLon0.03_PT014H.grib2 2026-05-05 18:13 1.3M
20260505T12Z_MSC_CAPS_SpecificHumidity_IsbL-0550_RLatLon0.03_PT014H.grib2 2026-05-05 18:13 1.2M
20260505T12Z_MSC_CAPS_SpecificHumidity_IsbL-0600_RLatLon0.03_PT014H.grib2 2026-05-05 18:13 1.4M
20260505T12Z_MSC_CAPS_SpecificHumidity_IsbL-0650_RLatLon0.03_PT014H.grib2 2026-05-05 18:13 1.5M
20260505T12Z_MSC_CAPS_SpecificHumidity_IsbL-0700_RLatLon0.03_PT014H.grib2 2026-05-05 18:13 1.3M
20260505T12Z_MSC_CAPS_SpecificHumidity_IsbL-0750_RLatLon0.03_PT014H.grib2 2026-05-05 18:13 1.4M
20260505T12Z_MSC_CAPS_SpecificHumidity_IsbL-0800_RLatLon0.03_PT014H.grib2 2026-05-05 18:13 1.6M
20260505T12Z_MSC_CAPS_SpecificHumidity_IsbL-0850_RLatLon0.03_PT014H.grib2 2026-05-05 18:13 1.7M
20260505T12Z_MSC_CAPS_SpecificHumidity_IsbL-0875_RLatLon0.03_PT014H.grib2 2026-05-05 18:13 1.8M
20260505T12Z_MSC_CAPS_SpecificHumidity_IsbL-0900_RLatLon0.03_PT014H.grib2 2026-05-05 18:13 1.5M
20260505T12Z_MSC_CAPS_SpecificHumidity_IsbL-0925_RLatLon0.03_PT014H.grib2 2026-05-05 18:13 1.5M
20260505T12Z_MSC_CAPS_SpecificHumidity_IsbL-0950_RLatLon0.03_PT014H.grib2 2026-05-05 18:13 1.6M
20260505T12Z_MSC_CAPS_SpecificHumidity_IsbL-0970_RLatLon0.03_PT014H.grib2 2026-05-05 18:13 1.6M
20260505T12Z_MSC_CAPS_SpecificHumidity_IsbL-0985_RLatLon0.03_PT014H.grib2 2026-05-05 18:13 1.7M
20260505T12Z_MSC_CAPS_SpecificHumidity_IsbL-1000_RLatLon0.03_PT014H.grib2 2026-05-05 18:13 1.7M
20260505T12Z_MSC_CAPS_SpecificHumidity_IsbL-1015_RLatLon0.03_PT014H.grib2 2026-05-05 18:13 1.7M
20260505T12Z_MSC_CAPS_SpecificHumidity_Sfc_RLatLon0.03_PT014H.grib2 2026-05-05 18:13 2.1M
20260505T12Z_MSC_CAPS_StormRelativeHelicity_Sfc_RLatLon0.03_PT014H.grib2 2026-05-05 18:13 3.3M
20260505T12Z_MSC_CAPS_Thickness_IsbL-1000to0500_RLatLon0.03_PT014H.grib2 2026-05-05 18:13 473K
20260505T12Z_MSC_CAPS_TotalCloudCover_Sfc_RLatLon0.03_PT014H.grib2 2026-05-05 18:13 3.5M
20260505T12Z_MSC_CAPS_TurboclineDepth_Sfc_RLatLon0.03_PT014H.nc 2026-05-05 18:13 16M
20260505T12Z_MSC_CAPS_UpwardLongwaveRadiationFlux_NTAtm_RLatLon0.03_PT014H.grib2 2026-05-05 18:13 2.9M
20260505T12Z_MSC_CAPS_UpwardShortwaveRadiationFlux_NTAtm_RLatLon0.03_PT014H.grib2 2026-05-05 18:13 2.0M
20260505T12Z_MSC_CAPS_VerticalVelocity_IsbL-0250_RLatLon0.03_PT014H.grib2 2026-05-05 18:13 1.2M
20260505T12Z_MSC_CAPS_VerticalVelocity_IsbL-0500_RLatLon0.03_PT014H.grib2 2026-05-05 18:13 1.2M
20260505T12Z_MSC_CAPS_VerticalVelocity_IsbL-0700_RLatLon0.03_PT014H.grib2 2026-05-05 18:13 1.0M
20260505T12Z_MSC_CAPS_VerticalVelocity_IsbL-0850_RLatLon0.03_PT014H.grib2 2026-05-05 18:13 1.1M
20260505T12Z_MSC_CAPS_VerticalVelocity_IsbL-1000_RLatLon0.03_PT014H.grib2 2026-05-05 18:13 1.5M
20260505T12Z_MSC_CAPS_WindDir_AGL-10m_RLatLon0.03_PT014H.grib2 2026-05-05 18:13 2.3M
20260505T12Z_MSC_CAPS_WindDir_AGL-120m_RLatLon0.03_PT014H.grib2 2026-05-05 18:13 1.2M
20260505T12Z_MSC_CAPS_WindDir_AGL-40m_RLatLon0.03_PT014H.grib2 2026-05-05 18:13 1.3M
20260505T12Z_MSC_CAPS_WindDir_AGL-80m_RLatLon0.03_PT014H.grib2 2026-05-05 18:13 1.2M
20260505T12Z_MSC_CAPS_WindDir_IsbL-0050_RLatLon0.03_PT014H.grib2 2026-05-05 18:13 1.1M
20260505T12Z_MSC_CAPS_WindDir_IsbL-0100_RLatLon0.03_PT014H.grib2 2026-05-05 18:13 1.0M
20260505T12Z_MSC_CAPS_WindDir_IsbL-0150_RLatLon0.03_PT014H.grib2 2026-05-05 18:13 1.0M
20260505T12Z_MSC_CAPS_WindDir_IsbL-0175_RLatLon0.03_PT014H.grib2 2026-05-05 18:13 1.0M
20260505T12Z_MSC_CAPS_WindDir_IsbL-0200_RLatLon0.03_PT014H.grib2 2026-05-05 18:13 1.1M
20260505T12Z_MSC_CAPS_WindDir_IsbL-0225_RLatLon0.03_PT014H.grib2 2026-05-05 18:13 1.1M
20260505T12Z_MSC_CAPS_WindDir_IsbL-0250_RLatLon0.03_PT014H.grib2 2026-05-05 18:13 1.1M
20260505T12Z_MSC_CAPS_WindDir_IsbL-0275_RLatLon0.03_PT014H.grib2 2026-05-05 18:13 1.1M
20260505T12Z_MSC_CAPS_WindDir_IsbL-0300_RLatLon0.03_PT014H.grib2 2026-05-05 18:13 1.1M
20260505T12Z_MSC_CAPS_WindDir_IsbL-0350_RLatLon0.03_PT014H.grib2 2026-05-05 18:13 1.1M
20260505T12Z_MSC_CAPS_WindDir_IsbL-0400_RLatLon0.03_PT014H.grib2 2026-05-05 18:13 1.1M
20260505T12Z_MSC_CAPS_WindDir_IsbL-0450_RLatLon0.03_PT014H.grib2 2026-05-05 18:13 1.2M
20260505T12Z_MSC_CAPS_WindDir_IsbL-0500_RLatLon0.03_PT014H.grib2 2026-05-05 18:13 1.3M
20260505T12Z_MSC_CAPS_WindDir_IsbL-0550_RLatLon0.03_PT014H.grib2 2026-05-05 18:13 1.3M
20260505T12Z_MSC_CAPS_WindDir_IsbL-0600_RLatLon0.03_PT014H.grib2 2026-05-05 18:13 1.3M
20260505T12Z_MSC_CAPS_WindDir_IsbL-0650_RLatLon0.03_PT014H.grib2 2026-05-05 18:13 1.3M
20260505T12Z_MSC_CAPS_WindDir_IsbL-0700_RLatLon0.03_PT014H.grib2 2026-05-05 18:13 1.4M
20260505T12Z_MSC_CAPS_WindDir_IsbL-0750_RLatLon0.03_PT014H.grib2 2026-05-05 18:13 1.6M
20260505T12Z_MSC_CAPS_WindDir_IsbL-0800_RLatLon0.03_PT014H.grib2 2026-05-05 18:13 1.7M
20260505T12Z_MSC_CAPS_WindDir_IsbL-0850_RLatLon0.03_PT014H.grib2 2026-05-05 18:13 1.8M
20260505T12Z_MSC_CAPS_WindDir_IsbL-0875_RLatLon0.03_PT014H.grib2 2026-05-05 18:13 1.9M
20260505T12Z_MSC_CAPS_WindDir_IsbL-0900_RLatLon0.03_PT014H.grib2 2026-05-05 18:13 1.9M
20260505T12Z_MSC_CAPS_WindDir_IsbL-0925_RLatLon0.03_PT014H.grib2 2026-05-05 18:13 2.0M
20260505T12Z_MSC_CAPS_WindDir_IsbL-0950_RLatLon0.03_PT014H.grib2 2026-05-05 18:13 2.0M
20260505T12Z_MSC_CAPS_WindDir_IsbL-0970_RLatLon0.03_PT014H.grib2 2026-05-05 18:13 2.1M
20260505T12Z_MSC_CAPS_WindDir_IsbL-0985_RLatLon0.03_PT014H.grib2 2026-05-05 18:13 2.2M
20260505T12Z_MSC_CAPS_WindDir_IsbL-1000_RLatLon0.03_PT014H.grib2 2026-05-05 18:13 2.2M
20260505T12Z_MSC_CAPS_WindDir_IsbL-1015_RLatLon0.03_PT014H.grib2 2026-05-05 18:13 2.3M
20260505T12Z_MSC_CAPS_WindGust-Max_AGL-10m_RLatLon0.03_PT014H.grib2 2026-05-05 18:13 2.4M
20260505T12Z_MSC_CAPS_WindGust-Min_AGL-10m_RLatLon0.03_PT014H.grib2 2026-05-05 18:13 2.5M
20260505T12Z_MSC_CAPS_WindGust_AGL-10m_RLatLon0.03_PT014H.grib2 2026-05-05 18:13 2.6M
20260505T12Z_MSC_CAPS_WindSpeed_AGL-10m_RLatLon0.03_PT014H.grib2 2026-05-05 18:13 2.1M
20260505T12Z_MSC_CAPS_WindSpeed_AGL-120m_RLatLon0.03_PT014H.grib2 2026-05-05 18:13 1.1M
20260505T12Z_MSC_CAPS_WindSpeed_AGL-40m_RLatLon0.03_PT014H.grib2 2026-05-05 18:13 1.2M
20260505T12Z_MSC_CAPS_WindSpeed_AGL-80m_RLatLon0.03_PT014H.grib2 2026-05-05 18:13 1.2M
20260505T12Z_MSC_CAPS_WindSpeed_IsbL-0050_RLatLon0.03_PT014H.grib2 2026-05-05 18:13 1.3M
20260505T12Z_MSC_CAPS_WindSpeed_IsbL-0100_RLatLon0.03_PT014H.grib2 2026-05-05 18:13 1.0M
20260505T12Z_MSC_CAPS_WindSpeed_IsbL-0150_RLatLon0.03_PT014H.grib2 2026-05-05 18:13 1.0M
20260505T12Z_MSC_CAPS_WindSpeed_IsbL-0175_RLatLon0.03_PT014H.grib2 2026-05-05 18:13 1.1M
20260505T12Z_MSC_CAPS_WindSpeed_IsbL-0200_RLatLon0.03_PT014H.grib2 2026-05-05 18:13 1.1M
20260505T12Z_MSC_CAPS_WindSpeed_IsbL-0225_RLatLon0.03_PT014H.grib2 2026-05-05 18:13 1.3M
20260505T12Z_MSC_CAPS_WindSpeed_IsbL-0250_RLatLon0.03_PT014H.grib2 2026-05-05 18:13 1.0M
20260505T12Z_MSC_CAPS_WindSpeed_IsbL-0275_RLatLon0.03_PT014H.grib2 2026-05-05 18:13 1.0M
20260505T12Z_MSC_CAPS_WindSpeed_IsbL-0300_RLatLon0.03_PT014H.grib2 2026-05-05 18:13 1.0M
20260505T12Z_MSC_CAPS_WindSpeed_IsbL-0350_RLatLon0.03_PT014H.grib2 2026-05-05 18:13 1.0M
20260505T12Z_MSC_CAPS_WindSpeed_IsbL-0400_RLatLon0.03_PT014H.grib2 2026-05-05 18:13 1.0M
20260505T12Z_MSC_CAPS_WindSpeed_IsbL-0450_RLatLon0.03_PT014H.grib2 2026-05-05 18:13 1.0M
20260505T12Z_MSC_CAPS_WindSpeed_IsbL-0500_RLatLon0.03_PT014H.grib2 2026-05-05 18:13 1.0M
20260505T12Z_MSC_CAPS_WindSpeed_IsbL-0550_RLatLon0.03_PT014H.grib2 2026-05-05 18:13 1.4M
20260505T12Z_MSC_CAPS_WindSpeed_IsbL-0600_RLatLon0.03_PT014H.grib2 2026-05-05 18:13 1.3M
20260505T12Z_MSC_CAPS_WindSpeed_IsbL-0650_RLatLon0.03_PT014H.grib2 2026-05-05 18:13 1.5M
20260505T12Z_MSC_CAPS_WindSpeed_IsbL-0700_RLatLon0.03_PT014H.grib2 2026-05-05 18:13 1.5M
20260505T12Z_MSC_CAPS_WindSpeed_IsbL-0750_RLatLon0.03_PT014H.grib2 2026-05-05 18:13 1.5M
20260505T12Z_MSC_CAPS_WindSpeed_IsbL-0800_RLatLon0.03_PT014H.grib2 2026-05-05 18:13 1.6M
20260505T12Z_MSC_CAPS_WindSpeed_IsbL-0850_RLatLon0.03_PT014H.grib2 2026-05-05 18:13 1.8M
20260505T12Z_MSC_CAPS_WindSpeed_IsbL-0875_RLatLon0.03_PT014H.grib2 2026-05-05 18:13 1.9M
20260505T12Z_MSC_CAPS_WindSpeed_IsbL-0900_RLatLon0.03_PT014H.grib2 2026-05-05 18:13 1.8M
20260505T12Z_MSC_CAPS_WindSpeed_IsbL-0925_RLatLon0.03_PT014H.grib2 2026-05-05 18:13 1.8M
20260505T12Z_MSC_CAPS_WindSpeed_IsbL-0950_RLatLon0.03_PT014H.grib2 2026-05-05 18:13 1.9M
20260505T12Z_MSC_CAPS_WindSpeed_IsbL-0970_RLatLon0.03_PT014H.grib2 2026-05-05 18:13 2.1M
20260505T12Z_MSC_CAPS_WindSpeed_IsbL-0985_RLatLon0.03_PT014H.grib2 2026-05-05 18:13 2.1M
20260505T12Z_MSC_CAPS_WindSpeed_IsbL-1000_RLatLon0.03_PT014H.grib2 2026-05-05 18:13 2.1M
20260505T12Z_MSC_CAPS_WindSpeed_IsbL-1015_RLatLon0.03_PT014H.grib2 2026-05-05 18:13 2.1M
20260505T12Z_MSC_CAPS_WindU_AGL-10m_RLatLon0.03_PT014H.grib2 2026-05-05 18:13 2.0M
20260505T12Z_MSC_CAPS_WindU_AGL-120m_RLatLon0.03_PT014H.grib2 2026-05-05 18:13 911K
20260505T12Z_MSC_CAPS_WindU_AGL-40m_RLatLon0.03_PT014H.grib2 2026-05-05 18:13 1.2M
20260505T12Z_MSC_CAPS_WindU_AGL-80m_RLatLon0.03_PT014H.grib2 2026-05-05 18:13 1.2M
20260505T12Z_MSC_CAPS_WindU_IsbL-0050_RLatLon0.03_PT014H.grib2 2026-05-05 18:13 947K
20260505T12Z_MSC_CAPS_WindU_IsbL-0100_RLatLon0.03_PT014H.grib2 2026-05-05 18:13 967K
20260505T12Z_MSC_CAPS_WindU_IsbL-0150_RLatLon0.03_PT014H.grib2 2026-05-05 18:13 929K
20260505T12Z_MSC_CAPS_WindU_IsbL-0175_RLatLon0.03_PT014H.grib2 2026-05-05 18:13 737K
20260505T12Z_MSC_CAPS_WindU_IsbL-0200_RLatLon0.03_PT014H.grib2 2026-05-05 18:13 760K
20260505T12Z_MSC_CAPS_WindU_IsbL-0225_RLatLon0.03_PT014H.grib2 2026-05-05 18:13 906K
20260505T12Z_MSC_CAPS_WindU_IsbL-0250_RLatLon0.03_PT014H.grib2 2026-05-05 18:13 922K
20260505T12Z_MSC_CAPS_WindU_IsbL-0275_RLatLon0.03_PT014H.grib2 2026-05-05 18:13 926K
20260505T12Z_MSC_CAPS_WindU_IsbL-0300_RLatLon0.03_PT014H.grib2 2026-05-05 18:13 933K
20260505T12Z_MSC_CAPS_WindU_IsbL-0350_RLatLon0.03_PT014H.grib2 2026-05-05 18:13 950K
20260505T12Z_MSC_CAPS_WindU_IsbL-0400_RLatLon0.03_PT014H.grib2 2026-05-05 18:13 960K
20260505T12Z_MSC_CAPS_WindU_IsbL-0450_RLatLon0.03_PT014H.grib2 2026-05-05 18:13 1.0M
20260505T12Z_MSC_CAPS_WindU_IsbL-0500_RLatLon0.03_PT014H.grib2 2026-05-05 18:13 1.0M
20260505T12Z_MSC_CAPS_WindU_IsbL-0550_RLatLon0.03_PT014H.grib2 2026-05-05 18:13 1.0M
20260505T12Z_MSC_CAPS_WindU_IsbL-0600_RLatLon0.03_PT014H.grib2 2026-05-05 18:13 949K
20260505T12Z_MSC_CAPS_WindU_IsbL-0650_RLatLon0.03_PT014H.grib2 2026-05-05 18:13 1.0M
20260505T12Z_MSC_CAPS_WindU_IsbL-0700_RLatLon0.03_PT014H.grib2 2026-05-05 18:13 1.0M
20260505T12Z_MSC_CAPS_WindU_IsbL-0750_RLatLon0.03_PT014H.grib2 2026-05-05 18:13 1.1M
20260505T12Z_MSC_CAPS_WindU_IsbL-0800_RLatLon0.03_PT014H.grib2 2026-05-05 18:13 1.1M
20260505T12Z_MSC_CAPS_WindU_IsbL-0850_RLatLon0.03_PT014H.grib2 2026-05-05 18:13 1.2M
20260505T12Z_MSC_CAPS_WindU_IsbL-0875_RLatLon0.03_PT014H.grib2 2026-05-05 18:13 1.3M
20260505T12Z_MSC_CAPS_WindU_IsbL-0900_RLatLon0.03_PT014H.grib2 2026-05-05 18:13 1.3M
20260505T12Z_MSC_CAPS_WindU_IsbL-0925_RLatLon0.03_PT014H.grib2 2026-05-05 18:13 1.3M
20260505T12Z_MSC_CAPS_WindU_IsbL-0950_RLatLon0.03_PT014H.grib2 2026-05-05 18:13 1.4M
20260505T12Z_MSC_CAPS_WindU_IsbL-0970_RLatLon0.03_PT014H.grib2 2026-05-05 18:13 1.4M
20260505T12Z_MSC_CAPS_WindU_IsbL-0985_RLatLon0.03_PT014H.grib2 2026-05-05 18:13 1.8M
20260505T12Z_MSC_CAPS_WindU_IsbL-1000_RLatLon0.03_PT014H.grib2 2026-05-05 18:13 1.9M
20260505T12Z_MSC_CAPS_WindU_IsbL-1015_RLatLon0.03_PT014H.grib2 2026-05-05 18:13 1.9M
20260505T12Z_MSC_CAPS_WindV_AGL-10m_RLatLon0.03_PT014H.grib2 2026-05-05 18:13 1.9M
20260505T12Z_MSC_CAPS_WindV_AGL-120m_RLatLon0.03_PT014H.grib2 2026-05-05 18:13 909K
20260505T12Z_MSC_CAPS_WindV_AGL-40m_RLatLon0.03_PT014H.grib2 2026-05-05 18:13 1.2M
20260505T12Z_MSC_CAPS_WindV_AGL-80m_RLatLon0.03_PT014H.grib2 2026-05-05 18:13 915K
20260505T12Z_MSC_CAPS_WindV_IsbL-0050_RLatLon0.03_PT014H.grib2 2026-05-05 18:13 772K
20260505T12Z_MSC_CAPS_WindV_IsbL-0100_RLatLon0.03_PT014H.grib2 2026-05-05 18:13 796K
20260505T12Z_MSC_CAPS_WindV_IsbL-0150_RLatLon0.03_PT014H.grib2 2026-05-05 18:13 919K
20260505T12Z_MSC_CAPS_WindV_IsbL-0175_RLatLon0.03_PT014H.grib2 2026-05-05 18:13 728K
20260505T12Z_MSC_CAPS_WindV_IsbL-0200_RLatLon0.03_PT014H.grib2 2026-05-05 18:13 879K
20260505T12Z_MSC_CAPS_WindV_IsbL-0225_RLatLon0.03_PT014H.grib2 2026-05-05 18:13 895K
20260505T12Z_MSC_CAPS_WindV_IsbL-0250_RLatLon0.03_PT014H.grib2 2026-05-05 18:13 704K
20260505T12Z_MSC_CAPS_WindV_IsbL-0275_RLatLon0.03_PT014H.grib2 2026-05-05 18:13 709K
20260505T12Z_MSC_CAPS_WindV_IsbL-0300_RLatLon0.03_PT014H.grib2 2026-05-05 18:13 719K
20260505T12Z_MSC_CAPS_WindV_IsbL-0350_RLatLon0.03_PT014H.grib2 2026-05-05 18:13 731K
20260505T12Z_MSC_CAPS_WindV_IsbL-0400_RLatLon0.03_PT014H.grib2 2026-05-05 18:13 955K
20260505T12Z_MSC_CAPS_WindV_IsbL-0450_RLatLon0.03_PT014H.grib2 2026-05-05 18:13 971K
20260505T12Z_MSC_CAPS_WindV_IsbL-0500_RLatLon0.03_PT014H.grib2 2026-05-05 18:13 1.0M
20260505T12Z_MSC_CAPS_WindV_IsbL-0550_RLatLon0.03_PT014H.grib2 2026-05-05 18:13 1.0M
20260505T12Z_MSC_CAPS_WindV_IsbL-0600_RLatLon0.03_PT014H.grib2 2026-05-05 18:13 945K
20260505T12Z_MSC_CAPS_WindV_IsbL-0650_RLatLon0.03_PT014H.grib2 2026-05-05 18:13 1.0M
20260505T12Z_MSC_CAPS_WindV_IsbL-0700_RLatLon0.03_PT014H.grib2 2026-05-05 18:13 1.3M
20260505T12Z_MSC_CAPS_WindV_IsbL-0750_RLatLon0.03_PT014H.grib2 2026-05-05 18:13 1.4M
20260505T12Z_MSC_CAPS_WindV_IsbL-0800_RLatLon0.03_PT014H.grib2 2026-05-05 18:13 1.1M
20260505T12Z_MSC_CAPS_WindV_IsbL-0850_RLatLon0.03_PT014H.grib2 2026-05-05 18:13 1.2M
20260505T12Z_MSC_CAPS_WindV_IsbL-0875_RLatLon0.03_PT014H.grib2 2026-05-05 18:13 1.3M
20260505T12Z_MSC_CAPS_WindV_IsbL-0900_RLatLon0.03_PT014H.grib2 2026-05-05 18:13 1.4M
20260505T12Z_MSC_CAPS_WindV_IsbL-0925_RLatLon0.03_PT014H.grib2 2026-05-05 18:13 1.4M
20260505T12Z_MSC_CAPS_WindV_IsbL-0950_RLatLon0.03_PT014H.grib2 2026-05-05 18:13 1.5M
20260505T12Z_MSC_CAPS_WindV_IsbL-0970_RLatLon0.03_PT014H.grib2 2026-05-05 18:13 1.5M
20260505T12Z_MSC_CAPS_WindV_IsbL-0985_RLatLon0.03_PT014H.grib2 2026-05-05 18:13 1.5M
20260505T12Z_MSC_CAPS_WindV_IsbL-1000_RLatLon0.03_PT014H.grib2 2026-05-05 18:13 1.5M
20260505T12Z_MSC_CAPS_WindV_IsbL-1015_RLatLon0.03_PT014H.grib2 2026-05-05 18:13 1.9M